Location: Aldenham
(51.6667°N, 0.3500°W)
Time: 16:05:13
(UTC+00:00)

IRS-1C - Pass Details

Date: 18 November 2025
Orbit: 813 x 814 km, 99.0° (Epoch: 13 December)

Event Time Altitude Azimuth Distance (km) Brightness Sun altitude
Rises 17:14:58 0° 159° (SSE) 3,328 7.3 -10.4°
Reaches altitude 10° 17:17:18 10° 158° (SSE) 2,400 6.5 -10.7°
Maximum altitude 17:22:37 82° 72° (ENE) 829 4.1 -11.5°
Drops below altitude 10° 17:27:58 10° 346° (NNW) 2,416 6.6 -12.3°
Sets 17:30:19 0° 345° (NNW) 3,352 7.3 -12.6°
